Time,TemperatureF,DewpointF,PressureIn,WindDirection,WindDirectionDegrees,WindSpeedMPH,WindSpeedGustMPH,Humidity,HourlyPrecipIn,Conditions,Clouds,dailyrainin,SolarRadiationWatts/m^2,SoftwareType,DateUTC
2013-03-24 00:02:00,41.0,-12.0,30.04,ESE,105,6.0,10.0,9,-99.99,,,-99.99,0.000000,,2013-03-24 06:02:00,
2013-03-24 00:12:00,41.0,-12.0,30.04,East,92,5.0,9.0,9,-99.99,,,-99.99,0.000000,,2013-03-24 06:12:00,
2013-03-24 00:22:00,41.0,-12.0,30.04,East,92,5.0,9.0,9,-99.99,,,-99.99,0.000000,,2013-03-24 06:22:00,
2013-03-24 00:32:00,40.0,-13.0,30.04,SE,135,6.0,10.0,9,-99.99,,,-99.99,0.000000,,2013-03-24 06:32:00,
2013-03-24 00:42:00,40.0,-13.0,30.05,ESE,123,4.0,8.0,9,-99.99,,,-99.99,0.000000,,2013-03-24 06:42:00,
2013-03-24 00:52:00,40.0,-13.0,30.05,ESE,123,4.0,8.0,9,-99.99,,,-99.99,0.000000,,2013-03-24 06:52:00,
2013-03-24 01:02:00,38.0,-13.0,30.05,SE,130,7.0,14.0,10,-99.99,,,-99.99,0.000000,,2013-03-24 07:02:00,
2013-03-24 01:12:00,37.0,-13.0,30.06,ESE,122,8.0,14.0,10,-99.99,,,-99.99,0.000000,,2013-03-24 07:12:00,
2013-03-24 01:22:00,37.0,-13.0,30.06,ESE,122,8.0,14.0,10,-99.99,,,-99.99,0.000000,,2013-03-24 07:22:00,
2013-03-24 01:32:00,37.0,-13.0,30.06,SE,144,9.0,14.0,10,-99.99,,,-99.99,0.000000,,2013-03-24 07:32:00,
2013-03-24 01:42:00,38.0,-13.0,30.06,SE,133,5.0,8.0,10,-99.99,,,-99.99,0.000000,,2013-03-24 07:42:00,
2013-03-24 01:52:00,38.0,-13.0,30.06,SE,133,5.0,8.0,10,-99.99,,,-99.99,0.000000,,2013-03-24 07:52:00,
2013-03-24 02:03:00,37.0,-14.0,30.06,ESE,105,5.0,8.0,10,-99.99,,,-99.99,0.000000,,2013-03-24 08:03:00,
2013-03-24 02:12:00,36.0,-14.0,30.06,ESE,111,9.0,13.0,10,-99.99,,,-99.99,0.000000,,2013-03-24 08:12:00,
2013-03-24 02:22:00,36.0,-14.0,30.06,ESE,111,9.0,13.0,10,-99.99,,,-99.99,0.000000,,2013-03-24 08:22:00,
2013-03-24 02:32:00,36.0,-14.0,30.06,ESE,111,9.0,13.0,10,-99.99,,,-99.99,0.000000,,2013-03-24 08:32:00,
2013-03-24 02:42:00,35.0,-14.0,30.06,ESE,121,11.0,14.0,11,-99.99,,,-99.99,0.000000,,2013-03-24 08:42:00,
2013-03-24 02:52:00,35.0,-14.0,30.06,ESE,121,11.0,14.0,11,-99.99,,,-99.99,0.000000,,2013-03-24 08:52:00,
2013-03-24 03:02:00,35.0,-14.0,30.06,SE,124,14.0,19.0,11,-99.99,,,-99.99,0.000000,,2013-03-24 09:02:00,
2013-03-24 03:12:00,34.0,-14.0,30.06,SE,124,16.0,21.0,11,-99.99,,,-99.99,0.000000,,2013-03-24 09:12:00,
2013-03-24 03:22:00,34.0,-14.0,30.06,SE,124,16.0,21.0,11,-99.99,,,-99.99,0.000000,,2013-03-24 09:22:00,
2013-03-24 03:33:00,34.0,-15.0,30.07,ESE,121,15.0,21.0,11,-99.99,,,-99.99,0.000000,,2013-03-24 09:33:00,
2013-03-24 03:42:00,33.0,-15.0,30.06,ESE,115,16.0,20.0,11,-99.99,,,-99.99,0.000000,,2013-03-24 09:42:00,
2013-03-24 03:52:00,33.0,-15.0,30.06,ESE,115,16.0,20.0,11,-99.99,,,-99.99,0.000000,,2013-03-24 09:52:00,
2013-03-24 04:03:00,34.0,-15.0,30.07,ESE,112,15.0,18.0,11,-99.99,,,-99.99,0.000000,,2013-03-24 10:03:00,
2013-03-24 04:12:00,33.0,-15.0,30.07,East,96,13.0,17.0,11,-99.99,,,-99.99,0.000000,,2013-03-24 10:12:00,
2013-03-24 04:22:00,33.0,-15.0,30.07,East,96,13.0,17.0,11,-99.99,,,-99.99,0.000000,,2013-03-24 10:22:00,
2013-03-24 04:32:00,33.0,-14.0,30.07,East,99,13.0,18.0,11,-99.99,,,-99.99,0.000000,,2013-03-24 10:32:00,
2013-03-24 04:42:00,33.0,-14.0,30.07,East,95,15.0,18.0,11,-99.99,,,-99.99,0.000000,,2013-03-24 10:42:00,
2013-03-24 04:52:00,33.0,-14.0,30.07,East,95,15.0,18.0,11,-99.99,,,-99.99,0.000000,,2013-03-24 10:52:00,
2013-03-24 05:03:00,33.0,-14.0,30.07,East,99,15.0,19.0,11,-99.99,,,-99.99,0.000000,,2013-03-24 11:03:00,
2013-03-24 05:12:00,33.0,-15.0,30.08,East,97,17.0,19.0,11,-99.99,,,-99.99,0.000000,,2013-03-24 11:12:00,
2013-03-24 05:22:00,33.0,-15.0,30.08,East,97,17.0,19.0,11,-99.99,,,-99.99,0.000000,,2013-03-24 11:22:00,
2013-03-24 05:32:00,33.0,-15.0,30.08,ESE,102,18.0,22.0,11,-99.99,,,-99.99,0.000000,,2013-03-24 11:32:00,
2013-03-24 05:42:00,33.0,-15.0,30.08,ESE,108,19.0,22.0,11,-99.99,,,-99.99,0.000000,,2013-03-24 11:42:00,
2013-03-24 05:52:00,33.0,-15.0,30.08,ESE,108,19.0,22.0,11,-99.99,,,-99.99,0.000000,,2013-03-24 11:52:00,
2013-03-24 06:02:00,33.0,-15.0,30.09,ESE,107,19.0,23.0,11,-99.99,,,-99.99,0.000000,,2013-03-24 12:02:00,
2013-03-24 06:12:00,33.0,-15.0,30.08,ESE,111,20.0,24.0,11,-99.99,,,-99.99,0.000000,,2013-03-24 12:12:00,
2013-03-24 06:22:00,33.0,-15.0,30.08,ESE,111,20.0,24.0,11,-99.99,,,-99.99,0.000000,,2013-03-24 12:22:00,
2013-03-24 06:32:00,33.0,-15.0,30.09,ESE,106,19.0,24.0,11,-99.99,,,-99.99,0.000000,,2013-03-24 12:32:00,
2013-03-24 06:42:00,30.0,-15.0,30.09,East,85,19.0,23.0,12,-99.99,,,-99.99,0.000000,,2013-03-24 12:42:00,
2013-03-24 06:52:00,30.0,-15.0,30.09,East,85,19.0,23.0,12,-99.99,,,-99.99,0.000000,,2013-03-24 12:52:00,
2013-03-24 07:02:00,28.0,-11.0,30.09,ENE,73,17.0,19.0,17,-99.99,,,-99.99,0.000000,,2013-03-24 13:02:00,
2013-03-24 07:12:00,28.0,-8.0,30.09,ENE,70,16.0,18.0,19,-99.99,,,-99.99,0.000000,,2013-03-24 13:12:00,
2013-03-24 07:22:00,28.0,-8.0,30.09,ENE,70,16.0,18.0,19,-99.99,,,-99.99,0.000000,,2013-03-24 13:22:00,
2013-03-24 07:32:00,28.0,-8.0,30.10,ENE,68,16.0,19.0,20,-99.99,,,-99.99,0.700000,,2013-03-24 13:32:00,
2013-03-24 07:42:00,27.0,-8.0,30.10,ENE,66,17.0,20.0,20,-99.99,,,-99.99,8.370000,,2013-03-24 13:42:00,
2013-03-24 07:52:00,27.0,-8.0,30.10,ENE,66,17.0,20.0,20,-99.99,,,-99.99,8.370000,,2013-03-24 13:52:00,
2013-03-24 08:02:00,28.0,-6.0,30.10,ENE,66,16.0,19.0,21,-99.99,,,-99.99,41.139999,,2013-03-24 14:02:00,
2013-03-24 08:12:00,28.0,-6.0,30.11,ENE,68,15.0,18.0,22,-99.99,,,-99.99,99.019997,,2013-03-24 14:12:00,
2013-03-24 08:22:00,28.0,-6.0,30.11,ENE,68,15.0,18.0,22,-99.99,,,-99.99,99.019997,,2013-03-24 14:22:00,
2013-03-24 08:32:00,29.0,-5.0,30.12,ENE,60,16.0,18.0,22,-99.99,,,-99.99,154.809998,,2013-03-24 14:32:00,
2013-03-24 08:42:00,30.0,-5.0,30.11,ENE,63,15.0,18.0,20,-99.99,,,-99.99,211.990005,,2013-03-24 14:42:00,
2013-03-24 08:52:00,30.0,-5.0,30.11,ENE,63,15.0,18.0,20,-99.99,,,-99.99,211.990005,,2013-03-24 14:52:00,
2013-03-24 09:02:00,31.0,-5.0,30.12,ENE,66,14.0,17.0,20,-99.99,,,-99.99,270.570007,,2013-03-24 15:02:00,
2013-03-24 09:12:00,31.0,-5.0,30.11,ENE,69,15.0,19.0,20,-99.99,,,-99.99,329.839996,,2013-03-24 15:12:00,
2013-03-24 09:22:00,31.0,-5.0,30.11,ENE,69,15.0,19.0,20,-99.99,,,-99.99,329.839996,,2013-03-24 15:22:00,
2013-03-24 09:33:00,32.0,-4.0,30.12,ENE,72,16.0,19.0,20,-99.99,,,-99.99,388.410004,,2013-03-24 15:33:00,
2013-03-24 09:43:00,32.0,-4.0,30.12,ENE,67,15.0,19.0,20,-99.99,,,-99.99,446.989990,,2013-03-24 15:43:00,
2013-03-24 09:53:00,32.0,-4.0,30.12,ENE,67,15.0,19.0,20,-99.99,,,-99.99,446.989990,,2013-03-24 15:53:00,
2013-03-24 10:03:00,32.0,-4.0,30.13,ENE,73,14.0,19.0,20,-99.99,,,-99.99,502.779999,,2013-03-24 16:03:00,
2013-03-24 10:12:00,33.0,-5.0,30.13,ENE,72,13.0,18.0,18,-99.99,,,-99.99,557.169983,,2013-03-24 16:12:00,
2013-03-24 10:23:00,33.0,-5.0,30.13,ENE,72,13.0,18.0,18,-99.99,,,-99.99,557.169983,,2013-03-24 16:23:00,
2013-03-24 10:33:00,34.0,-5.0,30.13,ENE,70,12.0,17.0,17,-99.99,,,-99.99,609.469971,,2013-03-24 16:33:00,
2013-03-24 10:42:00,35.0,-6.0,30.13,ENE,75,13.0,17.0,16,-99.99,,,-99.99,658.979980,,2013-03-24 16:42:00,
2013-03-24 10:52:00,35.0,-6.0,30.13,ENE,75,13.0,17.0,16,-99.99,,,-99.99,658.979980,,2013-03-24 16:52:00,
2013-03-24 11:02:00,35.0,-7.0,30.12,East,84,13.0,18.0,15,-99.99,,,-99.99,705.000000,,2013-03-24 17:02:00,
2013-03-24 11:12:00,36.0,-7.0,30.12,East,82,14.0,18.0,14,-99.99,,,-99.99,747.539978,,2013-03-24 17:12:00,
2013-03-24 11:23:00,36.0,-7.0,30.12,East,82,14.0,18.0,14,-99.99,,,-99.99,747.539978,,2013-03-24 17:23:00,
2013-03-24 11:33:00,37.0,-6.0,30.12,East,80,15.0,20.0,15,-99.99,,,-99.99,785.200012,,2013-03-24 17:33:00,
2013-03-24 11:42:00,37.0,-6.0,30.11,East,88,14.0,20.0,15,-99.99,,,-99.99,819.369995,,2013-03-24 17:42:00,
2013-03-24 11:53:00,37.0,-6.0,30.11,East,88,14.0,20.0,15,-99.99,,,-99.99,819.369995,,2013-03-24 17:53:00,
2013-03-24 12:03:00,38.0,-6.0,30.11,East,82,15.0,20.0,14,-99.99,,,-99.99,850.049988,,2013-03-24 18:03:00,
2013-03-24 12:12:00,38.0,-6.0,30.11,East,81,14.0,19.0,14,-99.99,,,-99.99,877.940002,,2013-03-24 18:12:00,
2013-03-24 12:22:00,38.0,-6.0,30.11,East,81,14.0,19.0,14,-99.99,,,-99.99,877.940002,,2013-03-24 18:22:00,
2013-03-24 12:32:00,39.0,-6.0,30.11,East,87,14.0,20.0,14,-99.99,,,-99.99,900.260010,,2013-03-24 18:32:00,
2013-03-24 12:43:00,40.0,-6.0,30.10,ENE,75,14.0,22.0,14,-99.99,,,-99.99,918.390015,,2013-03-24 18:43:00,
2013-03-24 12:52:00,40.0,-6.0,30.10,ENE,75,14.0,22.0,14,-99.99,,,-99.99,918.390015,,2013-03-24 18:52:00,
2013-03-24 13:02:00,40.0,-6.0,30.09,East,83,14.0,21.0,13,-99.99,,,-99.99,933.030029,,2013-03-24 19:02:00,
2013-03-24 13:12:00,40.0,-6.0,30.09,ENE,73,13.0,19.0,13,-99.99,,,-99.99,942.789978,,2013-03-24 19:12:00,
2013-03-24 13:22:00,40.0,-6.0,30.09,ENE,73,13.0,19.0,13,-99.99,,,-99.99,942.789978,,2013-03-24 19:22:00,
2013-03-24 13:32:00,41.0,-6.0,30.08,East,84,13.0,20.0,13,-99.99,,,-99.99,949.070007,,2013-03-24 19:32:00,
2013-03-24 13:42:00,41.0,-6.0,30.07,East,90,11.0,19.0,13,-99.99,,,-99.99,953.250000,,2013-03-24 19:42:00,
2013-03-24 13:53:00,41.0,-6.0,30.07,East,90,11.0,19.0,13,-99.99,,,-99.99,953.250000,,2013-03-24 19:53:00,
2013-03-24 14:02:00,41.0,-6.0,30.07,East,90,11.0,19.0,13,-99.99,,,-99.99,953.250000,,2013-03-24 20:02:00,
2013-03-24 14:12:00,43.0,-5.0,30.05,ENE,76,12.0,19.0,12,-99.99,,,-99.99,944.190002,,2013-03-24 20:12:00,
2013-03-24 14:22:00,43.0,-5.0,30.05,ENE,76,12.0,19.0,12,-99.99,,,-99.99,944.190002,,2013-03-24 20:22:00,
2013-03-24 14:32:00,43.0,-5.0,30.04,East,93,11.0,17.0,12,-99.99,,,-99.99,932.330017,,2013-03-24 20:32:00,
2013-03-24 14:42:00,44.0,-5.0,30.03,ENE,78,11.0,19.0,12,-99.99,,,-99.99,918.390015,,2013-03-24 20:42:00,
2013-03-24 14:53:00,44.0,-5.0,30.03,ENE,78,11.0,19.0,12,-99.99,,,-99.99,918.390015,,2013-03-24 20:53:00,
2013-03-24 15:02:00,46.0,-4.0,30.03,East,88,8.0,16.0,11,-99.99,,,-99.99,900.260010,,2013-03-24 21:02:00,
2013-03-24 15:12:00,46.0,-4.0,30.02,ESE,105,7.0,14.0,11,-99.99,,,-99.99,863.299988,,2013-03-24 21:12:00,
2013-03-24 15:22:00,46.0,-4.0,30.02,ESE,105,7.0,14.0,11,-99.99,,,-99.99,863.299988,,2013-03-24 21:22:00,
2013-03-24 15:33:00,47.0,-4.0,30.01,East,82,7.0,12.0,11,-99.99,,,-99.99,844.469971,,2013-03-24 21:33:00,
2013-03-24 15:43:00,47.0,-4.0,30.00,East,90,8.0,15.0,11,-99.99,,,-99.99,807.510010,,2013-03-24 21:43:00,
2013-03-24 15:53:00,47.0,-4.0,30.00,East,90,8.0,15.0,11,-99.99,,,-99.99,807.510010,,2013-03-24 21:53:00,
2013-03-24 16:02:00,47.0,-4.0,29.98,East,89,10.0,17.0,11,-99.99,,,-99.99,783.109985,,2013-03-24 22:02:00,
2013-03-24 16:13:00,48.0,-4.0,29.98,East,95,7.0,14.0,11,-99.99,,,-99.99,745.450012,,2013-03-24 22:13:00,
2013-03-24 16:23:00,48.0,-4.0,29.98,East,95,7.0,14.0,11,-99.99,,,-99.99,745.450012,,2013-03-24 22:23:00,
2013-03-24 16:33:00,49.0,-3.0,29.98,ESE,103,5.0,11.0,10,-99.99,,,-99.99,703.609985,,2013-03-24 22:33:00,
2013-03-24 16:42:00,51.0,-2.0,29.97,WSW,258,6.0,17.0,10,-99.99,,,-99.99,658.979980,,2013-03-24 22:42:00,
2013-03-24 16:52:00,51.0,-2.0,29.97,WSW,258,6.0,17.0,10,-99.99,,,-99.99,658.979980,,2013-03-24 22:52:00,
2013-03-24 17:02:00,54.0,-1.0,29.96,WSW,237,10.0,22.0,10,-99.99,,,-99.99,594.130005,,2013-03-24 23:02:00,
2013-03-24 17:12:00,52.0,-1.0,29.96,WSW,237,10.0,22.0,10,-99.99,,,-99.99,559.960022,,2013-03-24 23:12:00,
2013-03-24 17:22:00,52.0,-1.0,29.96,WSW,237,10.0,22.0,10,-99.99,,,-99.99,559.960022,,2013-03-24 23:22:00,
2013-03-24 17:32:00,53.0,-1.0,29.95,WSW,245,15.0,25.0,10,-99.99,,,-99.99,504.869995,,2013-03-24 23:32:00,
2013-03-24 17:42:00,53.0,-1.0,29.95,WSW,247,17.0,28.0,10,-99.99,,,-99.99,451.170013,,2013-03-24 23:42:00,
2013-03-24 17:53:00,53.0,-1.0,29.95,WSW,247,17.0,28.0,10,-99.99,,,-99.99,451.170013,,2013-03-24 23:53:00,
2013-03-24 18:02:00,53.0,-1.0,29.94,WSW,256,19.0,26.0,10,-99.99,,,-99.99,343.790009,,2013-03-25 00:02:00,
2013-03-24 18:12:00,53.0,-1.0,29.94,WSW,244,19.0,30.0,10,-99.99,,,-99.99,336.109985,,2013-03-25 00:12:00,
2013-03-24 18:22:00,53.0,-1.0,29.94,WSW,244,19.0,30.0,10,-99.99,,,-99.99,336.109985,,2013-03-25 00:22:00,
2013-03-24 18:32:00,53.0,-1.0,29.94,WSW,246,14.0,22.0,10,-99.99,,,-99.99,276.839996,,2013-03-25 00:32:00,
2013-03-24 18:42:00,53.0,-2.0,29.93,WSW,240,15.0,25.0,10,-99.99,,,-99.99,117.849998,,2013-03-25 00:42:00,
2013-03-24 18:53:00,53.0,-2.0,29.93,WSW,240,15.0,25.0,10,-99.99,,,-99.99,117.849998,,2013-03-25 00:53:00,
2013-03-24 19:02:00,53.0,-2.0,29.94,SSW,210,5.0,14.0,10,-99.99,,,-99.99,117.849998,,2013-03-25 01:02:00,
2013-03-24 19:12:00,52.0,-2.0,29.94,SE,146,5.0,11.0,10,-99.99,,,-99.99,67.639999,,2013-03-25 01:12:00,
2013-03-24 19:22:00,52.0,-2.0,29.94,SE,146,5.0,11.0,10,-99.99,,,-99.99,67.639999,,2013-03-25 01:22:00,
2013-03-24 19:32:00,51.0,-2.0,29.93,East,100,6.0,14.0,11,-99.99,,,-99.99,25.799999,,2013-03-25 01:32:00,
2013-03-24 19:42:00,50.0,-2.0,29.94,South,191,7.0,13.0,10,-99.99,,,-99.99,16.740000,,2013-03-25 01:42:00,
2013-03-24 19:52:00,50.0,-2.0,29.94,South,191,7.0,13.0,10,-99.99,,,-99.99,16.740000,,2013-03-25 01:52:00,
2013-03-24 20:02:00,50.0,-2.0,29.94,SE,127,5.0,10.0,11,-99.99,,,-99.99,4.880000,,2013-03-25 02:02:00,
2013-03-24 20:12:00,51.0,-3.0,29.94,SSW,212,5.0,13.0,10,-99.99,,,-99.99,0.700000,,2013-03-25 02:12:00,
2013-03-24 20:22:00,51.0,-3.0,29.94,SSW,212,5.0,13.0,10,-99.99,,,-99.99,0.700000,,2013-03-25 02:22:00,
2013-03-24 20:32:00,52.0,-2.0,29.94,SSW,209,13.0,31.0,10,-99.99,,,-99.99,0.000000,,2013-03-25 02:32:00,
2013-03-24 20:42:00,54.0,-2.0,29.93,SW,225,20.0,33.0,9,-99.99,,,-99.99,0.000000,,2013-03-25 02:42:00,
2013-03-24 20:52:00,54.0,-2.0,29.93,SW,225,20.0,33.0,9,-99.99,,,-99.99,0.000000,,2013-03-25 02:52:00,
2013-03-24 21:02:00,54.0,-2.0,29.93,SW,229,24.0,40.0,9,-99.99,,,-99.99,0.000000,,2013-03-25 03:02:00,
2013-03-24 21:13:00,54.0,-1.0,29.93,SW,228,25.0,35.0,10,-99.99,,,-99.99,0.000000,,2013-03-25 03:13:00,
2013-03-24 21:22:00,54.0,-1.0,29.93,SW,228,25.0,35.0,10,-99.99,,,-99.99,0.000000,,2013-03-25 03:22:00,
2013-03-24 21:33:00,54.0,-1.0,29.95,WSW,237,22.0,37.0,10,-99.99,,,-99.99,0.000000,,2013-03-25 03:33:00,
2013-03-24 21:42:00,53.0,-1.0,29.96,WSW,239,22.0,29.0,10,-99.99,,,-99.99,0.000000,,2013-03-25 03:42:00,
2013-03-24 21:53:00,53.0,-1.0,29.96,WSW,239,22.0,29.0,10,-99.99,,,-99.99,0.000000,,2013-03-25 03:53:00,
2013-03-24 22:02:00,52.0,-1.0,29.98,SSW,205,16.0,30.0,11,-99.99,,,-99.99,0.000000,,2013-03-25 04:02:00,
2013-03-24 22:12:00,48.0,-2.0,29.99,SE,124,10.0,16.0,12,-99.99,,,-99.99,0.000000,,2013-03-25 04:12:00,
2013-03-24 22:22:00,48.0,-2.0,29.99,SE,124,10.0,16.0,12,-99.99,,,-99.99,0.000000,,2013-03-25 04:22:00,
2013-03-24 22:33:00,47.0,-2.0,29.99,East,91,10.0,15.0,12,-99.99,,,-99.99,0.000000,,2013-03-25 04:33:00,
2013-03-24 22:43:00,47.0,-2.0,30.00,ENE,57,9.0,14.0,12,-99.99,,,-99.99,0.000000,,2013-03-25 04:43:00,
2013-03-24 22:52:00,47.0,-2.0,30.00,ENE,57,9.0,14.0,12,-99.99,,,-99.99,0.000000,,2013-03-25 04:52:00,
2013-03-24 23:03:00,47.0,-2.0,30.01,ENE,77,6.0,11.0,12,-99.99,,,-99.99,0.000000,,2013-03-25 05:03:00,
2013-03-24 23:12:00,47.0,-2.0,30.01,ESE,117,3.0,5.0,12,-99.99,,,-99.99,0.000000,,2013-03-25 05:12:00,
2013-03-24 23:22:00,47.0,-2.0,30.01,ESE,117,3.0,5.0,12,-99.99,,,-99.99,0.000000,,2013-03-25 05:22:00,
2013-03-24 23:32:00,47.0,-2.0,30.01,East,91,4.0,6.0,12,-99.99,,,-99.99,0.000000,,2013-03-25 05:32:00,
2013-03-24 23:42:00,47.0,-2.0,30.01,East,85,5.0,7.0,12,-99.99,,,-99.99,0.000000,,2013-03-25 05:42:00,
2013-03-24 23:52:00,47.0,-2.0,30.01,East,85,5.0,7.0,12,-99.99,,,-99.99,0.000000,,2013-03-25 05:52:00,